Погода в Селе Совхоз Боровский

Россия / Калужская область     55°10′27″N   36°37′26″E
темп.,
°C
ветер,
м/с
пор.,
м/с
влажн.,
%
обл.,
%
осадки,
мм/ч
давл.,
гПа
погр.,
м
9 декабря, чт
чт900:00−10ссв41086100 0.1 1022299
03:00−9ссв41086100 0.2 1022311
06:00−10ссв4118649 0.1 1023334
09:00−11ссв411895 0.1 1025285
12:00−9св49815 0.0 1025264
15:00−9ссв39835 0.0 1026301
18:00−12св310915 0.0 1028231
21:00−12св310925 0.0 1029245
10 декабря, пт
пт1000:00−13всв3109210 0.0 1030205
03:00−13всв39925 0.0 1031203
06:00−13в310915 0.0 1031220
09:00−13в311905 0.0 1032235
12:00−10в411825 0.0 1032295
15:00−9в411825 0.0 1032326
18:00−11вюв412845 0.0 1032292
21:00−11вюв413875 0.0 1033281
11 декабря, сб
сб1100:00−11вюв4138642 0.0 1033283
03:00−11вюв4128760 0.0 1033264
06:00−11вюв4128755 0.0 1033268
09:00−11вюв4118747 0.0 1033265
12:00−8вюв4128037 0.0 1033299
15:00−7вюв410816 0.0 1032310
18:00−9вюв4128447 0.0 1033289
21:00−8вюв4128576 0.0 1033289
12 декабря, вс
вс1200:00−7вюв41285100 0.0 1033282
03:00−7юв3109024 0.0 1033240
06:00−7юв39926 0.0 1033190
09:00−6юв399069 0.0 1034214
12:00−4юв388797 0.0 1034212
15:00−3юв3889100 0.0 1033216
18:00−5юв3992100 0.0 1033195
21:00−6юв3990100 0.0 1033187
13 декабря, пн
пн1300:00−6юв3988100 0.0 1033189
03:00−6вюв3888100 0.0 1032180
06:00−5юв3985100 0.0 1031204
09:00−4вюв3883100 0.0 1031213
12:00−3юв3780100 0.0 1030248
15:00−3юв3782100 0.0 1029237
18:00−3юв3785100 0.0 1029219
21:00−4юв3784100 0.0 1029191